Location: Lake Lucerne
(45.5315°N, 88.8489°W)
Time: 02:58:37
(UTC-05:00)

ISS - Visible Passes

Search period start: 22 October 2018 00:00
Search period end: 01 November 2018 00:00
Orbit: 402 x 408 km, 51.6° (Epoch: 22 October)

Date Brightness Start Highest point End Pass type
(mag) Time Alt. Az. Time Alt. Az. Time Alt. Az.
26 Oct -0.9 06:15:32 10° S 06:17:42 17° SE 06:19:53 10° E visible
28 Oct -2.3 06:06:54 10° SSW 06:09:52 35° SE 06:12:54 10° ENE visible
29 Oct -1.6 05:17:38 20° SE 05:17:58 20° SE 05:20:28 10° E visible
29 Oct -3.8 06:50:56 10° WSW 06:54:11 67° NNW 06:57:29 10° ENE visible
30 Oct -3.8 06:00:53 35° SW 06:02:07 76° SSE 06:05:24 10° ENE visible
31 Oct -1.8 05:11:16 29° E 05:11:16 29° E 05:13:14 10° ENE visible
31 Oct -3.2 06:43:58 13° W 06:46:37 40° NNW 06:49:45 10° NE visible
